Regional Weather Roundup
Issued by NWS

Home | Current Version | Previous Version | Graphics & Text | Print | Product List | Glossary On
Versions: 1 2 3 4 5 6 7 8 9 10 11 12 13 14 15 16 17 18 19 20 21 22 23 24 25 26 27 28 29 30 31 32 33 34 35 36 37 38 39 40 41 42 43 44 45 46 47 48 49 50
556
ASUS43 KMPX 260210
RWRMN
WEATHER ROUNDUP FOR MINNESOTA
NATIONAL WEATHER SERVICE TWIN CITIES/CHANHASSEN MN
900 PM CDT FRI MAY 25 2018


NOTE: "FAIR" INDICATES FEW OR NO CLOUDS BELOW 12,000 FEET WITH NO
SIGNIFICANT WEATHER AND/OR OBSTRUCTIONS TO VISIBILITY. N/A MEANS
CURRENT SKY AND/OR WEATHER CONDITIONS ARE NOT AVAILABLE.

MNZ060>063-068>070-260300-
   Twin Cities Metro

CITY           SKY/WX    TMP DP  RH WIND       PRES   REMARKS
TWIN CITIES    FAIR      77  60  55 S6        29.69R
ST PAUL        FAIR      75  59  57 S7        29.68R
CRYSTAL        FAIR      76  57  51 SW3       29.66R
BLAINE         PTCLDY    75  61  60 CALM      29.68R
LAKEVILLE      FAIR      72  57  60 CALM      29.70R
EDEN PRAIRIE   FAIR      71  60  68 S3        29.68R
SOUTH ST PAUL  FAIR      77  56  49 SE3       29.69R
LAKE ELMO      FAIR      70  64  83 SE7       29.70S
$$
MNZ001>005-007-008-013>017-022>024-027-028-260300-
   Northwest Minnesota

CITY           SKY/WX    TMP DP  RH WIND       PRES   REMARKS
BEMIDJI        FAIR      76  53  43 CALM      29.62S
HALLOCK        FAIR      82  52  34 N14       29.54R
ROSEAU         FAIR      77  59  53 SE5       29.56R
WARROAD        MOCLDY    72  61  68 CALM      29.58R
THIEF RVR FALL LGT RAIN  78  55  44 SW12G23   29.57F
CROOKSTON      FAIR      81  54  39 W8        29.57R
FOSSTON        FAIR      73  52  46 S6        29.61R
DETROIT LAKES  LGT RAIN  81  50  34 CALM      29.65F
MOORHEAD       FAIR      82  54  36 CALM      29.61S
PARK RAPIDS    FAIR      72  56  57 SW5       29.63S
MAHNOMEN       FAIR      74  55  52 S5        29.61S
$$
MNZ006-009>011-018-025>026-260300-
   North Central Minnesota

CITY           SKY/WX    TMP DP  RH WIND       PRES   REMARKS
BAUDETTE         N/A    N/A N/A N/A MISG      29.54F
FLAG ISLAND    LGT RAIN  64  61  88 S8        29.53F
INTL FALLS     FAIR      68  62  81 CALM      29.58S
WASKISH        FAIR      73  57  56 CALM      29.60F
BIG FORK       FAIR      70  57  64 CALM      29.61S
LONGVILLE      FAIR      70  57  64 CALM      29.63S
GRAND RAPIDS   FAIR      69  58  67 S3        29.64F
ORR            FAIR      70  54  56 CALM      29.59S
COOK           FAIR      72  55  56 CALM      29.63R
WALKER         FAIR      76  53  43 CALM      29.63R
$$
MNZ012-019>021-037-260300-
   Northeast Minnesota

CITY           SKY/WX    TMP DP  RH WIND       PRES   REMARKS
ELY            FAIR      73  55  53 CALM      29.63R
HIBBING        FAIR      68  56  65 CALM      29.62S
EVELETH        FAIR      70  59  68 CALM      29.64S
DULUTH HARBOR  FAIR      77  63  61 CALM      29.61S
TWO HARBORS    FAIR      72  61  68 CALM      29.61R
SILVER BAY     FAIR      72  61  68 CALM      29.60S
GRAND MARAIS     N/A     50  47  89 N3        29.59F
G MARAIS ARPRT FAIR      70  54  56 CALM      29.65S
$$
MNZ029>031-032-039>041-046>048-054>057-064-260300-
   West Central Minnesota

CITY           SKY/WX    TMP DP  RH WIND       PRES   REMARKS
FERGUS FALLS   FAIR      82  52  34 NE3       29.58S
MORRIS         CLEAR     81  52  36 W6        29.65R
ALEXANDRIA     FAIR      80  58  46 SE3       29.67S
ELBOW LAKE     FAIR      80  51  36 NW6       29.65R
WADENA         FAIR      73  61  64 CALM      29.64S
GLENWOOD       FAIR      77  63  61 S3        29.65S
APPLETON       CLEAR     79  55  44 SW5       29.65S
BENSON         CLEAR     81  54  39 W3        29.67S
ORTONVILLE     CLEAR     82  54  36 W3        29.66S
MADISON        CLEAR     81  59  47 SW6       29.67S
WILLMAR        FAIR      79  55  44 CALM      29.70S
$$
MNZ033>034-036-042>043-049>051-058-059-260300-
   Central Minnesota

CITY           SKY/WX    TMP DP  RH WIND       PRES   REMARKS
ST CLOUD       FAIR      77  56  48 S7        29.66R
SAUK CENTRE    FAIR      78  60  53 CALM      29.67R
PAYNESVILLE    FAIR      77  58  51 S7        29.67S
AITKIN         FAIR      68  55  64 CALM      29.63R
PINE RIVER     FAIR      72  55  56 CALM      29.67S
BRAINERD       FAIR      75  56  51 S3        29.64S
STAPLES        FAIR      75  54  46 CALM      29.64S
LONG PRAIRIE   FAIR      75  61  60 S3        29.67R
LITTLE FALLS   FAIR      73  59  60 CALM      29.65S
LITCHFIELD     FAIR      73  61  64 CALM      29.69R
BUFFALO        FAIR      73  58  60 CALM      29.69R
MAPLE LAKE     FAIR      73  63  71 CALM      29.69R
HUTCHINSON     FAIR      70  63  79 CALM      29.70S
$$
MNZ037-044-045-052-053-260300-
   East Central Minnesota

CITY           SKY/WX    TMP DP  RH WIND       PRES   REMARKS
PRINCETON      FAIR      75  57  53 S3        29.67R
MORA           FAIR      73  61  64 CALM      29.67S
CAMBRIDGE      FAIR      79  59  50 S7        29.67R
RUSH CITY      FAIR      75  59  56 CALM      29.66R
MOOSE LAKE     FAIR      70  59  68 CALM      29.62S
HINCKLEY       FAIR      75  63  64 CALM      29.64S
CLOQUET        FAIR      73  63  68 CALM      29.65R
MCGREGOR       FAIR      73  59  60 CALM      29.64S
$$
MNZ071>073-080-081-089-090-097-098-260300-
   Southwest Minnesota

CITY           SKY/WX    TMP DP  RH WIND       PRES   REMARKS
MONTEVIDEO     CLEAR     79  54  41 SW5       29.67S
CANBY          CLEAR     79  64  59 SW7       29.70S
MARSHALL       CLEAR     75  61  61 S10       29.70S
REDWOOD FALLS  CLEAR     74  64  71 SW10      29.68S
OLIVIA         CLEAR     72  64  78 SW8       29.68S
PIPESTONE      PTCLDY    75  61  60 W3        29.74S
WINDOM         CLOUDY    72  52  49 CALM      29.72F
WORTHINGTON    PTCLDY    70  62  76 CALM      29.74F
JACKSON        CLOUDY    70  61  73 W3        29.73S
TRACY          CLEAR     76  61  59 S5        29.71F
SLAYTON        HVY RAIN  75  55  50 S5        29.74F
$$
MNZ065>067-074>077-082>085-091>093-260300-
   South Central Minnesota

CITY           SKY/WX    TMP DP  RH WIND       PRES   REMARKS
MANKATO        FAIR      70  62  76 S8        29.71S
NEW ULM        CLOUDY    72  57  60 S5        29.70S
ST JAMES       CLOUDY    73  61  64 S7        29.72S
FAIRMONT       PTCLDY    75  59  57 S5        29.72F
GLENCOE        FAIR      71  62  72 S6        29.69R
FARIBAULT      FAIR      66  64  94 CALM      29.71R
WASECA         FAIR      66  61  82 E8        29.73F
ALBERT LEA     FAIR      66  63  88 CALM      29.73F
$$
MNZ078>079-086>088-094>096-260300-
   Southeast Minnesota

CITY           SKY/WX    TMP DP  RH WIND       PRES   REMARKS
ROCHESTER      TSTM      64  60  87 N5G21     29.78R
RED WING       FAIR      75  59  57 S6        29.71R
STANTON        FAIR      71  63  76 SE5       29.69F
DODGE CENTER   DRIZZLE   63  61  94 CALM      29.75F
WINONA         FAIR      70  63  78 CALM      29.74R
AUSTIN         MOCLDY    68  61  77 E7        29.75F
PRESTON        FAIR      68  61  77 SE12      29.75F
$$
ABBREVIATIONS USED IN REMARKS
   TC - TEMPERATURES IN CELSIUS
  WCI - WIND CHILL INDEX
   HX - HEAT INDEX
  VSB - VISIBILITY
$$




USA.gov is the U.S. government's official web portal to all federal, state and local government web resources and services.